{"data":{"norad_id":58708,"intl_designator":"2024-002D","name":"STARLINK-11079 [DTC]","alt_names":[],"object_type":"PAYLOAD","status":"ACTIVE","operator":null,"country":"US","launch_date":"2024-01-03","launch_site_code":"AFWTR","launch_vehicle":null,"mission":null,"orbit_class":"UNKNOWN","rcs_meters":null,"size_class":null,"mass_kg":null,"dimensions":null,"purposes":["comms"],"wikipedia_slug":null,"has_3d_model":false,"image_url":null,"decayed_at":null,"tle_current":{"epoch":"2026-05-24T19:25:32.545344Z","epoch_age_seconds":94706,"freshness":"FRESH","line1":"1 58708U 24002D   26144.80940446 -.00001423  00000+0 -68908-5 0  9995","line2":"2 58708  53.1593 258.7121 0000740  74.2793 285.8306 15.69714118138394","mean_motion":15.69714118,"eccentricity":7.4e-5,"inclination_deg":53.1593,"raan_deg":258.7121,"arg_perigee_deg":74.2793,"mean_anomaly_deg":285.8306,"bstar":-6.8908e-6,"rev_number":13839,"period_min":91.736449553931,"perigee_km":359.21636526032,"apogee_km":360.21356735134,"semimajor_km":6737.8519663058,"source":"CELESTRAK","updated_at":"2026-05-25T13:38:18.715128Z"}}}